Regional Weather Roundup
Issued by NWS

Home | Current Version | Previous Version | Graphics & Text | Print | Product List | Glossary On
Versions: 1 2 3 4 5 6 7 8 9 10 11 12 13 14 15 16 17 18 19 20 21 22 23 24 25 26 27 28 29 30 31 32 33 34 35 36 37 38 39 40 41 42 43 44 45 46 47 48 49 50
000
ASUS44 KMEG 032200
RWRTN
TENNESSEE HOURLY STATE WEATHER ROUNDUP
NATIONAL WEATHER SERVICE MEMPHIS TN
400 PM CST SAT DEC 03 2016

TNZ002-004-019-021-049-052-054-088>092-032300-
WEST TENNESSEE

CITY           SKY/WX    TMP DP  RH WIND       PRES   REMARKS
MEMPHIS INTL   LGT RAIN  45  41  86 E12       30.21F
NWS MEMPHIS      N/A     44 N/A N/A MISG        N/A
JACKSON        LGT RAIN  44  32  62 NE3       30.25F
DYERSBURG      CLOUDY   N/A N/A N/A E3        30.24F
PARIS          CLEAR     39  30  70 E6        30.26F WCI  35
$$

TNZ008-025-027-028-033-062-065-066-032300-
NORTH MIDDLE TENNESSEE

CITY           SKY/WX    TMP DP  RH WIND       PRES   REMARKS
NASHVILLE      CLOUDY    44  31  60 NE5       30.28F
CLARKSVILLE    CLOUDY    42  31  64 E8        30.28F
SMYRNA         CLOUDY    44  32  62 NE5       30.29F
CROSSVILLE     CLOUDY    40  30  67 NE6       30.24F
$$

TNZ061-075-076-078-094-096-097-032300-
SOUTH MIDDLE TENNESSEE

CITY           SKY/WX    TMP DP  RH WIND       PRES   REMARKS
TULLAHOMA      MOCLDY    43  32  65 NE3       30.25S
WINCHESTER     MOCLDY    43  36  75 CALM      30.25S
SHELBYVILLE    CLOUDY    43  37  81 N5        30.27S
$$

TNZ017-018-042-046-047-032300-
NORTHEAST TENNESSEE

CITY           SKY/WX    TMP DP  RH WIND       PRES   REMARKS
TRI CITIES     CLOUDY    42  29  59 N3        30.27S
$$

TNZ012-013-036-069-073-074-032300-
CENTRAL EAST TENNESSEE

CITY           SKY/WX    TMP DP  RH WIND       PRES   REMARKS
KNOXVILLE      NOT AVBL
OAK RIDGE      CLOUDY    45  30  55 E6        30.29S
GATLINBURG     CLEAR     43  30  61 NE5       30.27F
$$

TNZ083-085-099-032300-
SOUTHEAST TENNESSEE

CITY           SKY/WX    TMP DP  RH WIND       PRES   REMARKS
CHATTANOOGA    CLOUDY    47  32  56 NE6       30.26F
$$

SKY/WX REPORTED AS FAIR MEANS FEW OR NO CLOUDS BELOW
12 THOUSAND FEET.




USA.gov is the U.S. government's official web portal to all federal, state and local government web resources and services.